Location: Riverside
(39.1734°N, 77.8561°W)
Time: 02:02:28
(UTC+00:00)

OTV 5 (USA 277) - Visible Passes

Search period start: 26 March 2019 00:00
Search period end: 05 April 2019 00:00
Orbit: 315 x 320 km, 54.5° (Epoch: 14 March)

Date Brightness Start Highest point End Pass type
(mag) Time Alt. Az. Time Alt. Az. Time Alt. Az.
28 Mar ? 10:31:24 10° SSE 10:32:25 11° SE 10:33:26 10° ESE visible
31 Mar ? 09:40:17 11° S 09:42:06 19° SE 09:44:10 10° E visible
01 Apr ? 09:54:56 19° SSW 09:56:39 64° SE 09:59:21 10° NE visible
02 Apr ? 10:09:27 15° WSW 10:11:22 37° NW 10:13:56 10° NNE visible
03 Apr ? 08:52:57 23° E 08:52:57 23° E 08:54:19 10° ENE visible
03 Apr ? 10:24:22 10° WNW 10:26:13 16° NNW 10:28:06 10° NNE visible
04 Apr ? 09:07:15 39° NNE 09:07:15 39° NNE 09:09:08 10° NE visible
